Location: Rostock
(54.0884°N, 12.1234°E)
Time: 13:41:29
(UTC+01:00)

ISS - Pass Details

Date: 08 January 2018
Orbit: 402 x 407 km, 51.6° (Epoch: 21 January)

Event Time Altitude Azimuth Distance (km) Brightness Sun altitude
Exits shadow 06:38:33 27° 249° (WSW) 827 -2.7 -15.0°
Maximum altitude 06:39:54 42° 195° (SSW) 591 -3.0 -14.8°
Drops below altitude 10° 06:43:02 10° 123° (ESE) 1,468 0.3 -14.3°
Sets 06:45:11 0° 116° (ESE) 2,328 1.9 -14.0°
